{"data":{"norad_id":62961,"epoch":"2026-05-24T23:30:25.952256Z","epoch_age_seconds":74043,"freshness":"FRESH","line1":"1 62961U 25029P   26144.97946704  .00013111  00000+0  45384-3 0  9998","line2":"2 62961  53.1594 238.4014 0001438  90.5467 269.5698 15.30212140 72993","mean_motion":15.3021214,"eccentricity":0.0001438,"inclination_deg":53.1594,"raan_deg":238.4014,"arg_perigee_deg":90.5467,"mean_anomaly_deg":269.5698,"bstar":0.00045384,"rev_number":7299,"period_min":94.104599117871,"perigee_km":474.19331499204,"apogee_km":476.1643286224,"semimajor_km":6853.3158218072,"source":"CELESTRAK","updated_at":"2026-05-25T13:38:19.827022Z"}}